Location: Kejimkujik National Park
(44.4000°N, 65.2200°W)
Time: 05:29:56
(UTC-04:00)

X-37B - Visible Passes

Search period start: 01 December 2020 00:00
Search period end: 11 December 2020 00:00
Orbit: 384 x 390 km, 45.0° (Epoch: 26 November)

Date Brightness Start Highest point End Pass type
(mag) Time Alt. Az. Time Alt. Az. Time Alt. Az.
01 Dec 0.5 18:01:47 10° WSW 18:04:57 78° SSE 18:06:16 32° E visible
01 Dec 4.2 19:38:26 10° W 19:38:33 11° W 19:38:33 11° W visible
02 Dec 1.0 18:39:51 10° W 18:42:35 61° WNW 18:42:35 61° WNW visible
03 Dec 0.5 17:41:14 10° W 17:44:26 84° N 17:46:39 18° E visible
03 Dec 3.4 19:17:56 10° W 19:18:55 18° W 19:18:55 18° W visible
04 Dec 0.5 18:19:20 10° W 18:22:31 80° N 18:23:00 60° ENE visible
05 Dec 0.6 17:20:45 10° W 17:23:55 77° N 17:27:06 10° E visible
05 Dec 2.2 18:57:24 10° W 18:59:26 35° W 18:59:26 35° W visible
06 Dec 0.5 17:58:49 10° W 18:02:00 87° SSW 18:03:38 26° ESE visible
06 Dec 4.1 19:35:39 10° W 19:35:55 12° W 19:35:55 12° W visible
07 Dec 1.4 18:36:55 10° W 18:39:58 44° SSW 18:40:15 42° S visible
08 Dec 0.9 17:38:18 10° W 17:41:27 66° SSW 17:44:36 10° ESE visible
08 Dec 3.5 19:15:31 10° WSW 19:17:01 16° SW 19:17:01 16° SW visible
09 Dec 2.5 18:16:33 10° W 18:19:19 28° SSW 18:21:42 12° SSE visible
10 Dec 1.8 17:17:50 10° W 17:20:51 43° SSW 17:23:53 10° SE visible
